Regional Weather Roundup
Issued by NWS Pendleton, OR

Home | Current Version | Previous Version | Text Only | Print | Product List | Glossary On
Versions: 1 2 3 4 5 6 7 8 9 10 11 12 13 14 15 16 17 18 19 20 21 22 23 24 25 26 27 28 29 30 31 32 33 34 35 36 37 38 39 40 41 42 43 44 45 46 47 48 49 50
000
ASUS46 KPDT 230225
RWRPDT
PENDLETON REGIONAL WEATHER ROUNDUP
NATIONAL WEATHER SERVICE PENDLETON OREGON
700 PM PDT FRI SEP 22 2017

NOTE: FAIR INDICATES FEW OR NO CLOUDS BELOW 12,000 FEET WITH NO
SIGNIFICANT WEATHER AND/OR OBSTRUCTIONS TO VISIBILITY.

# INDICATES UNOFFICIAL STATION AND DATA

WAZ520-230310-
EAST SLOPES OF WASHINGTON CASCADES

CITY            SKY/WX      TMP DP  RH  WIND    PRES   REMARKS
#BULLFROG       N/A         57  42  57  W6      N/A
#CLE ELUM HS    N/A         56  43  62  SW3     29.95R
#CLE ELUM LAKE  N/A         51  42  71  CALM    29.98S
#EASTON DOT     N/A         51  43  74  CALM    N/A
#ELK HTS DOT    N/A         56  56  100 SW3     N/A
#GLENWOOD       N/A         53  47  80  CALM    30.02S
#NELSON 3SW     N/A         52  41  66  CALM    30.20S
#NILE           N/A         52  45  77  CALM    29.28S
#TEANAWAY 4NE   N/A         55  45  69  CALM    N/A
#TROUT LAKE 1NE N/A         52  47  83  CALM    30.03S
#TROUT LAKE 1E  N/A         52  46  80  CALM    30.05S
$$

WAZ521-230310-
SIMCOE HIGHLANDS

CITY            SKY/WX      TMP DP  RH  WIND    PRES   REMARKS
#BICKLETON HS   N/A         52  43  71  W5      29.98S
#CENTERVILLE 1SWN/A         55  43  64  CALM    29.98R
#GOLDENDALE 1NE N/A         56  35  45  CALM    N/A
#GOLDENDALE 4W  N/A         56  16  20  CALM    30.06S
#GOODNOE HILLS  N/A         58  45  62  NW3     N/A
#LYLE 6NE       N/A         54  47  77  S5      30.03S
#PITT 4SE       N/A         51  45  80  W1      30.05S
$$

WAZ026-230310-
KITTITAS VALLEY

CITY            SKY/WX      TMP DP  RH  WIND    PRES   REMARKS
ELLENSBURG AP   CLOUDY      57  42  57  NE5     30.00S
#ELLENSBURG CWU N/A         58  41  53  SE2     29.93S
#ELLENSBURG 3NE N/A         53  44  71  CALM    28.07S
#ELLENSBURG 1E  N/A         56  42  59  CALM    30.03S
#KITTITAS 3S    N/A         56  42  59  N1      29.97S
#MANASTASH RDG  N/A         54  54  100 SE8     N/A
#ROCKY CYN DOT  N/A         59  38  45  W3      N/A
#RYEGRASS DOT   N/A         54  33  45  W6      N/A
$$

WAZ027-230310-
YAKIMA VALLEY

CITY            SKY/WX      TMP DP  RH  WIND    PRES   REMARKS
SUNNYSIDE AP    CLOUDY      54  49  83  N3      30.00S
YAKIMA AIRPORT  MOCLDY      61  41  48  S6      30.00F
YAKIMA-VAGABOND MOCLDY      57  40  53  S6      29.98F
#DONALD 2NE     N/A         58  23  26  NW1     30.01R
#GRANDVIEW      N/A         57  42  57  CALM    30.01R
#MABTON         N/A         60  46  60  CALM    30.00R
#MOXEE 2E       N/A         56  N/A N/A CALM    29.94R
#NACHES 2SW     N/A         56  45  66  CALM    30.01S
#OUTLOOK DOT    N/A         60  43  53  CALM    29.97R
#PARKER DOT     N/A         58  45  62  SW1     29.99S
#TERRACE HTS    N/A         56  44  64  CALM    29.96F
#TOPPENISH      N/A         61  45  56  CALM    29.91S
#I82 S UMTANUM RN/A         56  36  47  S2      N/A
#UNION GAP DOT  N/A         60  43  53  S2      30.02F
#W YAKIMA       N/A         57  42  57  CALM    30.00S
#WHITE SWAN 5E  N/A         58  46  64  CALM    30.00S
#WILEY CITY 3W  N/A         57  37  47  CALM    29.97S
#ZILLAH DOT     N/A         59  46  62  CALM    N/A
$$

WAZ028-230310-
LOWER COLUMBIA BASIN...WASHINGTON

CITY            SKY/WX      TMP DP  RH  WIND    PRES   REMARKS
PASCO           MOCLDY      63  42  46  CALM    30.00R
PROSSER AWOS    N/A         55  46  72  CALM    30.03R
RICHLAND AWOS   MOCLDY      60  46  60  S3      30.01R
#BENTON CITY    N/A         58  46  64  CALM    29.90S
#CONNELL 5N     N/A         58  43  57  W1      29.99R
#CONNELL 5NW    N/A         57  44  62  CALM    29.94S
#ELTOPIA 6NW    N/A         58  46  64  CALM    28.97R
#KAHLOTUS       N/A         58  43  57  NW8     29.98S
#KENNEWICK 3S   N/A         59  43  55  CALM    30.00S
#PATERSON       N/A         61  45  56  N1      29.98R
#PROSSER DOT    N/A         61  44  53  CALM    30.01R
#SAGEMOOR 2W    N/A         59  48  67  CALM    29.85S
#TOUCHET 2S     N/A         56  45  66  CALM    29.98S
#WEST PASCO     N/A         58  43  57  CALM    29.98R
$$

WAZ029-230310-
FOOTHILLS OF THE BLUES...WASHINGTON

CITY            SKY/WX      TMP DP  RH  WIND    PRES   REMARKS
WALLA WALLA AP  PTCLDY      57  44  62  SW7     30.01R
#CLYDE 6NW      N/A         52  45  77  SW6     29.99R
#DAYTON SCHOOL  N/A         56  38  51  CALM    30.01R
#LOWDEN 2SE     N/A         56  46  69  CALM    29.97R
#PLEASANT VIEW 1N/A         53  41  64  SW7     30.03R
#PRESCOTT       N/A         57  41  55  CALM    29.99R
#WAITSBURG 6SSE N/A         51  42  71  E3      30.04R
#WALLA WALLA 5E N/A         53  45  74  E2      N/A
#WHITMAN MISSIONN/A         57  47  69  CALM    30.01S
$$

WAZ030-230310-
BLUE MOUNTAINS...WASHINGTON

CITY            SKY/WX      TMP DP  RH  WIND    PRES   REMARKS
#DIXIE 5SE      N/A         41  38  89  S2      29.94R
$$

ORZ009-041-WAZ024-230310-
COLUMBIA RIVER GORGE

CITY            SKY/WX      TMP DP  RH  WIND    PRES   REMARKS
THE DALLES AP   CLOUDY      62  45  54  N9      30.01R
#CELILO DOT     N/A         63  42  46  SW2     N/A
#LYLE           N/A         61  49  65  W7      30.03R
#MARYHILL       N/A         61  41  48  N9      N/A
#MURDOCK        N/A         61  48  62  NW9     29.98R
#RUFUS DOT      N/A         65  N/A N/A S2      N/A
#SMITHVILLE     N/A         61  47  60  N6      29.97R

$$

ORZ510-230310-
NORTH CENTRAL OREGON

CITY            SKY/WX      TMP DP  RH  WIND    PRES   REMARKS
#ANTELOPE       N/A         53  37  54  NE1     29.91R
#CHENOWITH 1W   N/A         53  44  71  W15     N/A
#COW CYN RST AREN/A         53  32  45  N3      N/A
#DUFUR          N/A         57  43  59  CALM    29.98S
#DUFUR 9E       N/A         53  42  66  NW3     30.08R
#GRASS VALLEY 1SN/A         54  40  59  CALM    30.05R
#KENT DOT       N/A         54  25  32  NE1     N/A
#MAUPIN SCHOOL  N/A         60  44  55  NW5     30.06R
#MORO SCHOOL    N/A         56  45  66  W5      30.02R
#SHANIKO 5WSW   N/A         50  25  37  N8      N/A
#SHANIKO 4NW    N/A         49  32  52  N7      30.03R
#TYGH VALLEY 2NEN/A         60  44  55  CALM    30.01R
#WAPANITIA AIRPON/A         55  44  66  W3      30.04R
#WASCO DOT      N/A         60  38  44  CALM    N/A
#WASCO 5NE      N/A         57  45  64  CALM    30.00S
$$

ORZ511-230310-
CENTRAL OREGON

CITY            SKY/WX      TMP DP  RH  WIND    PRES   REMARKS
BEND AIRPORT    PTCLDY      52  36  54  NW7     30.05R
MADRAS AIRPORT  CLOUDY      54  54  100 NW12    30.06R
PRINEVILLE AP   MOCLDY      50  37  61  SE3     30.05R
REDMOND AIRPORT MOCLDY      53  32  45  N6      30.03S
#ASHWOOD SCHOOL N/A         53  42  66  CALM    29.99R
#BEND 1SW       N/A         46  36  68  CALM    N/A
#BEND-AWBREY    N/A         49  38  66  CALM    30.04R
#BEND-KIM LN    N/A         50  39  66  W1      29.98S
#CULVER         N/A         53  37  54  CALM    29.91S
#CULVER 8W      N/A         55  34  45  N1      30.05S
#LAKE BILLY CHINN/A         55  N/A N/A NW10    30.10R
#MADRAS 4S      N/A         55  11  17  N6      N/A
#POWELL BUTTE   N/A         49  37  63  CALM    29.99R
#PRINEVILLE     N/A         49  40  71  CALM    30.13R
#PRINEVILLE 3N  N/A         48  41  77  E1      30.03R
#WARM SPRINGS   N/A         58  41  53  CALM    29.88R

$$


ORZ509-230310-
EAST SLOPES OF OREGON CASCADES

CITY            SKY/WX      TMP DP  RH  WIND    PRES   REMARKS
SISTERS AWOS    N/A         48  39  71  CALM    N/A
#CAMP SHERMAN   N/A         49  39  68  CALM    30.13R
#LA PINE 4NW    N/A         45  34  65  CALM    30.10R
#LAVA BUTTE DOT N/A         46  28  49  E2      N/A
#SISTERS ODOT   N/A         50  37  61  CALM    N/A
#SISTERS 3N     N/A         47  37  68  CALM    30.06S
#SUNRIVER       N/A         46  37  71  CALM    30.06R
#TUMALO 3W      N/A         48  37  65  NW5     29.93R
#WANOGA BUTTE D N/A         38  31  76  N1      N/A

$$

ORZ044-230310-
LOWER COLUMBIA BASIN...OREGON

CITY            SKY/WX      TMP DP  RH  WIND    PRES   REMARKS
HERMISTON       MOCLDY      60  42  51  SW6     29.99S
#BOARDMAN SCHOOLN/A         63  45  52  SW2     29.99R
#BOARDMAN 8SW   N/A         60  47  62  SW2     30.01R
#ECHO 8SW       N/A         54  43  66  SW1     30.01S
#I-84 EX 198 DOTN/A         60  38  44  E3      N/A
#IONE SCHOOL    N/A         59  41  51  CALM    30.02S
#UMATILLA       N/A         60  43  53  CALM    29.92S
$$

ORZ507-230310-
NORTHERN FOOTHILLS OF THE BLUES

CITY            SKY/WX      TMP DP  RH  WIND    PRES   REMARKS
PENDLETON AIRPT MOCLDY      56  40  55  CALM    30.00S
#ADAMS 3WNW     N/A         52  42  69  CALM    30.00R
#ATHENA         N/A         50  42  74  CALM    30.04R
#CAYUSE         N/A         54  42  64  CALM    30.01R
#HELIX SCHOOL   N/A         52  41  66  CALM    30.01R
#HELIX 3N       N/A         52  41  66  CALM    29.98S
#HOLDMAN 5SE    N/A         55  42  61  CALM    30.00R
#HOLDMAN 6E     N/A         55  41  59  CALM    29.81R
#M-F GROVE ELEM N/A         54  42  64  CALM    29.99R
#M-FREEWATER 5SEN/A         53  43  69  CALM    30.01R
#PENDLETON DNTN N/A         57  37  47  CALM    30.01R
#PDT AQUATIC CTRN/A         56  39  53  CALM    29.99S
#PDT SUNRIDGE   N/A         57  42  57  CALM    30.02R
#PENDLETON 7NW  N/A         59  44  57  CALM    29.66R
#PILOT ROCK     N/A         52  40  63  CALM    30.03R
#TUTUILLA       N/A         55  43  64  CALM    30.05S
#UMAPINE 2E     N/A         50  44  80  CALM    29.98R
#WESTON SCHOOL  N/A         51  39  63  CALM    29.92R

$$

ORZ508-230310-
SOUTHERN FOOTHILLS OF THE BLUES

CITY            SKY/WX      TMP DP  RH  WIND    PRES   REMARKS
LEXINGTON       CLOUDY      55  43  64  CALM    30.05S
#AJAX           N/A         55  32  41  CALM    30.17S
#FOSSIL SCHOOL  N/A         53  39  59  CALM    29.97S
#HEPPNER EOC    N/A         52  39  61  W1      29.96S
#HEPPNER 4NE    N/A         48  38  68  CALM    30.02S
#LEXINGTON 2SE  N/A         56  41  57  CALM    29.98S
#MIKKALO        N/A         57  38  49  CALM    30.12R
#OLEX 4N        N/A         60  43  53  CALM    29.99S
#RUGGS 5NE      N/A         49  36  61  CALM    30.20S
#RUGGS 2SW      N/A         48  38  68  W2      30.05S

$$

ORZ502-503-230310-
BLUE MOUNTAINS

CITY            SKY/WX      TMP DP  RH  WIND    PRES   REMARKS
MEACHAM         PTCLDY      42  36  79  CALM    30.02S
#BATTLE MTN DOT N/A         42  32  67  N1      N/A
#GRANITE        N/A         41  28  59  CALM    29.95R
#GREENHORN 9SW  N/A         47  34  60  W2      26.21R
#HEPPNER 15SE   N/A         44  36  73  CALM    29.94R
#LADD CYN SMT   N/A         42  41  96  W3      N/A
#LADD CREEK ODOTN/A         44  41  89  SW1     N/A
#LONG CREEK HS  N/A         43  39  86  SW3     30.03R
#N POWDER DOT   N/A         45  40  82  NE10    N/A
#PIKES PEAK     N/A         46  39  76  CALM    27.99S
#TOLLGATE       N/A         38  35  89  CALM    29.88R
#TROY SCHOOL    N/A         51  43  74  CALM    29.87R
#UKIAH          N/A         45  37  73  CALM    29.96R
#WESTON 4E      N/A         47  39  74  CALM    30.01
$$

ORZ505-230310-
JOHN DAY BASIN

CITY            SKY/WX      TMP DP  RH  WIND    PRES   REMARKS
JOHN DAY        PTCLDY      47  32  56  CALM    30.02R
#JOHN DAY KJDY  N/A         51  N/A N/A CALM    28.97R
#ANTELOPE 9ESE  N/A         58  37  45  CALM    N/A
#DAYVILLE SCHOOLN/A         54  35  48  W6      29.97R
#MITCHELL       N/A         47  44  89  CALM    30.20R
#MONUMENT HS    N/A         57  35  43  E3      29.97R
#MT. VERNON 5SE N/A         45  34  65  CALM    29.96R
#SPRAY SCHOOL   N/A         54  N/A N/A CALM    N/A
#WINLOCK        N/A         48  38  68  CALM    29.99R
$$

ORZ506-230310-
OCHOCO AND JOHN DAY HIGHLANDS

CITY            SKY/WX      TMP DP  RH  WIND    PRES   REMARKS
#HORSE RIDGE DO N/A         48  32  54  N6      N/A
#IZEE 6NW       N/A         44  34  68  W1      N/A
#PAULINA ODOT   N/A         47  35  63  NW3     N/A
#PINE MTN OBS   N/A         36  32  85  NW3     N/A
#PRAIRIE CITY   N/A         49  34  56  CALM    30.14R
#SENECA         N/A         42  N/A N/A CALM    N/A
#SENECA 9NW     N/A         42  33  70  CALM    30.01R
$$

ORZ049-230310-
GRANDE RONDE VALLEY

CITY            SKY/WX      TMP DP  RH  WIND    PRES   REMARKS
LA GRANDE       LGT RAIN    45  42  89  S5      30.03S
#COVE           N/A         45  43  93  CALM    30.05R
#COVE SCHOOL    N/A         45  41  86  CALM    30.04R
#COVE 6NW       N/A         46  42  86  CALM    30.05R
#ELGIN 3N       N/A         45  42  89  CALM    30.44R
#ELGIN 1E       N/A         46  41  83  CALM    N/A
#IMBLER SCHOOL  N/A         44  41  89  CALM    29.99R
#ISLAND CITY 4N N/A         61  54  78  CALM    30.03S
#LA GRANDE-LEFFEN/A         45  42  89  E2      30.42S
#UNION 1S       N/A         46  42  86  CALM    30.05R
$$

ORZ050-230310-
WALLOWA COUNTY

CITY            SKY/WX      TMP DP  RH  WIND    PRES   REMARKS
JOSEPH AIRPORT  CLOUDY      45  37  73  N7      30.03R
#ENTERPRISE HS  N/A         45  39  79  NW2     29.95R
#IMNAHA SCHOOL  N/A         52  44  74  CALM    30.00R
#IMNAHA 10S     N/A         48  39  71  CALM    29.99R
#JOSEPH         N/A         44  39  82  NW7     30.23R
#JOSEPH 3N      N/A         44  34  68  NW7     30.03R
#JOSEPH 3W      N/A         41  39  93  CALM    30.38R
#LOSTINE        N/A         43  39  86  CALM    29.88R
#LOSTINE 3SE    N/A         42  37  82  E6      30.08R
#MT HOWARD 8000 N/A         27  26  96  CALM    29.98S
#PROMISE 1S     N/A         41  38  89  S1      30.16S
#WALLOWA LAKE   N/A         41  37  86  CALM    30.03S
#WALLOWA SCHOOL N/A         44  38  79  E1      30.01R



$$



USA.gov is the U.S. government's official web portal to all federal, state and local government web resources and services.